timestamp,surface_pressure_avg,surface_temp_avg,battery_voltage,lat,long
2021-04-09 00:09:01+00:00,294.0297,2.7,12.97,47.84626,-54.09684
2021-04-09 00:19:01+00:00,287.6797,2.6,12.65,47.84626,-54.09684
2021-04-09 00:29:01+00:00,283.883,2.5,12.65,47.84626,-54.09684
2021-04-09 00:39:01+00:00,277.1164,2.49,12.65,47.84626,-54.09684
2021-04-09 00:49:01+00:00,266.6248,3.0,12.65,47.84626,-54.09684
2021-04-09 00:59:01+00:00,261.2331,2.5,12.65,47.84626,-54.09684
2021-04-09 01:09:01+00:00,256.0748,2.4,12.65,47.84626,-54.09684
2021-04-09 01:19:01+00:00,245.8765,2.5,12.65,47.84626,-54.09684
2021-04-09 01:29:01+00:00,235.5997,2.78,12.65,47.84626,-54.09684
2021-04-09 01:39:01+00:00,231.4631,2.7,12.65,47.84626,-54.09684
2021-04-09 01:49:01+00:00,225.4281,2.7,12.65,47.84626,-54.09684
2021-04-09 01:59:01+00:00,216.4448,2.8,12.65,47.84626,-54.09684
2021-04-09 02:09:01+00:00,211.2198,2.8,12.65,47.84626,-54.09684
2021-04-09 02:19:01+00:00,212.1397,2.8,12.65,47.84626,-54.09684
2021-04-09 02:29:01+00:00,209.5481,2.8,12.65,47.84626,-54.09684
2021-04-09 02:39:01+00:00,204.0048,2.8,12.65,47.84626,-54.09684
2021-04-09 02:49:01+00:00,202.7648,2.8,12.65,47.84626,-54.09684
2021-04-09 02:59:01+00:00,203.5998,2.8,12.65,47.84626,-54.09684
2021-04-09 03:09:01+00:00,201.1381,2.8,12.65,47.84626,-54.09684
2021-04-09 03:19:01+00:00,199.8698,2.8,12.65,47.84626,-54.09684
2021-04-09 03:29:01+00:00,200.2248,2.75,12.65,47.84626,-54.09684
2021-04-09 03:39:01+00:00,198.0281,2.6,12.65,47.84626,-54.09684
2021-04-09 03:49:01+00:00,196.2931,2.6,12.65,47.84626,-54.09684
2021-04-09 03:59:01+00:00,196.2347,2.6,12.65,47.84626,-54.09684
2021-04-09 04:09:01+00:00,196.3097,2.6,12.65,47.84626,-54.09684
2021-04-09 04:19:01+00:00,194.1598,2.6,12.65,47.84626,-54.09684
2021-04-09 04:29:01+00:00,192.4532,2.6,12.65,47.84626,-54.09684
2021-04-09 04:39:01+00:00,193.8965,2.6,12.65,47.84626,-54.09684
2021-04-09 04:49:01+00:00,196.5331,2.6,12.65,47.84626,-54.09684
2021-04-09 04:59:01+00:00,200.4531,2.6,12.65,47.84626,-54.09684
2021-04-09 05:09:01+00:00,203.8848,2.7,12.65,47.84626,-54.09684
2021-04-09 05:19:01+00:00,207.2831,2.65,12.65,47.84626,-54.09684
2021-04-09 05:29:01+00:00,211.1881,2.6,12.65,47.84626,-54.09684
2021-04-09 05:39:01+00:00,216.9064,2.62,12.65,47.84626,-54.09684
2021-04-09 05:49:01+00:00,221.6998,2.7,12.65,47.84626,-54.09684
2021-04-09 05:59:01+00:00,225.4848,2.7,12.65,47.84626,-54.09684
2021-04-09 06:09:01+00:00,230.6431,2.67,12.65,47.84626,-54.09684
2021-04-09 06:19:01+00:00,237.9315,2.73,12.65,47.84626,-54.09684
2021-04-09 06:29:01+00:00,243.5898,2.78,12.65,47.84626,-54.09684
2021-04-09 06:39:01+00:00,248.6581,2.7,12.65,47.84626,-54.09684
2021-04-09 06:49:01+00:00,254.6314,2.3,12.65,47.84626,-54.09684
2021-04-09 06:59:01+00:00,259.2064,2.39,12.65,47.84626,-54.09684
2021-04-09 07:09:01+00:00,261.8864,2.5,12.65,47.84626,-54.09684
2021-04-09 07:19:01+00:00,268.0898,2.7,12.57,47.84626,-54.09684
2021-04-09 07:29:01+00:00,275.5097,2.7,12.57,47.84626,-54.09684
2021-04-09 07:39:01+00:00,280.7414,2.7,12.57,47.84626,-54.09684
2021-04-09 07:49:01+00:00,285.0231,2.7,12.57,47.84626,-54.09684
2021-04-09 07:59:01+00:00,292.718,2.22,12.57,47.84626,-54.09684
2021-04-09 08:09:01+00:00,301.3347,2.49,12.57,47.84626,-54.09684
2021-04-09 08:19:01+00:00,306.6598,2.56,12.57,47.84626,-54.09684
2021-04-09 08:29:01+00:00,313.6497,1.9,12.57,47.84626,-54.09684
2021-04-09 08:39:01+00:00,319.508,2.22,12.57,47.84626,-54.09684
2021-04-09 08:49:01+00:00,323.6913,2.3,12.57,47.84626,-54.09684
2021-04-09 08:59:01+00:00,326.528,2.2,12.57,47.84626,-54.09684
2021-04-09 09:09:01+00:00,334.0513,2.0,12.57,47.84626,-54.09684
2021-04-09 09:19:01+00:00,338.4646,2.2,12.57,47.84626,-54.09684
2021-04-09 09:29:01+00:00,338.2747,2.47,12.57,47.84626,-54.09684
2021-04-09 09:39:01+00:00,340.0797,2.4,12.57,47.84626,-54.09684
2021-04-09 09:49:01+00:00,342.158,2.2,12.57,47.84626,-54.09684
2021-04-09 09:59:01+00:00,341.9329,2.09,12.57,47.84626,-54.09684
2021-04-09 10:09:01+00:00,343.36800000000005,2.3,12.57,47.84626,-54.09684
2021-04-09 10:19:01+00:00,342.9397,2.1,12.65,47.84626,-54.09684
2021-04-09 10:29:01+00:00,342.2812,2.2,12.65,47.84626,-54.09684
2021-04-09 10:39:01+00:00,341.9946,1.9,12.65,47.84626,-54.09684
2021-04-09 10:49:01+00:00,343.4413,1.8,12.65,47.84626,-54.09684
2021-04-09 10:59:01+00:00,340.0446,1.8,12.65,47.84626,-54.09684
2021-04-09 11:09:01+00:00,335.6696,1.8,12.65,47.84626,-54.09684
2021-04-09 11:19:01+00:00,339.0113,1.8,13.76,47.84626,-54.09684
2021-04-09 11:29:01+00:00,338.463,1.8,13.76,47.84626,-54.09684
2021-04-09 11:39:01+00:00,331.2213,1.8,13.76,47.84626,-54.09684
2021-04-09 11:49:01+00:00,328.973,1.8,13.76,47.84626,-54.09684
2021-04-09 11:59:01+00:00,330.0163,1.85,13.76,47.84626,-54.09684
2021-04-09 12:09:01+00:00,324.9663,2.11,13.76,47.84626,-54.09684
2021-04-09 12:19:01+00:00,318.1346,2.47,14.64,47.84626,-54.09684
2021-04-09 12:29:01+00:00,317.1663,2.5,14.64,47.84626,-54.09684
2021-04-09 12:39:01+00:00,314.1697,2.43,14.64,47.84626,-54.09684
2021-04-09 12:49:01+00:00,303.1964,2.52,14.64,47.84626,-54.09684
2021-04-09 12:59:01+00:00,295.6848,2.4,14.64,47.84626,-54.09684
2021-04-09 13:09:01+00:00,290.6464,2.28,14.64,47.84626,-54.09684
2021-04-09 13:19:01+00:00,282.1331,2.31,14.24,47.84626,-54.09684
2021-04-09 13:29:01+00:00,271.8414,2.94,14.24,47.84626,-54.09684
2021-04-09 13:39:01+00:00,265.5531,3.0,14.24,47.84626,-54.09684
2021-04-09 13:49:01+00:00,258.0148,2.98,14.24,47.84626,-54.09684
2021-04-09 13:59:01+00:00,248.3714,2.8,14.24,47.84626,-54.09684
2021-04-09 14:09:01+00:00,242.0598,2.89,14.24,47.84626,-54.09684
2021-04-09 14:19:01+00:00,238.1481,2.85,14.24,47.84626,-54.09684
2021-04-09 14:29:01+00:00,230.9114,2.64,14.24,47.84626,-54.09684
2021-04-09 14:39:01+00:00,224.0431,2.28,14.24,47.84626,-54.09684
2021-04-09 14:49:01+00:00,222.2414,2.73,14.24,47.84626,-54.09684
2021-04-09 14:59:01+00:00,219.1231,2.96,14.24,47.84626,-54.09684
2021-04-09 15:09:01+00:00,212.4815,2.85,14.24,47.84626,-54.09684
2021-04-09 15:19:01+00:00,207.0965,2.76,14.16,47.84626,-54.09684
2021-04-09 15:29:01+00:00,206.6214,2.73,14.16,47.84626,-54.09684
2021-04-09 15:39:01+00:00,203.8748,2.4,14.16,47.84626,-54.09684
2021-04-09 15:49:01+00:00,199.9698,2.47,14.16,47.84626,-54.09684
2021-04-09 15:59:01+00:00,199.1615,2.74,14.16,47.84626,-54.09684
2021-04-09 16:09:01+00:00,199.0031,3.01,14.16,47.84626,-54.09684
2021-04-09 16:19:01+00:00,200.0865,3.11,14.24,47.84626,-54.09684
2021-04-09 16:29:01+00:00,201.6064,3.0,14.24,47.84626,-54.09684
2021-04-09 16:39:01+00:00,203.4214,2.52,14.24,47.84626,-54.09684
2021-04-09 16:49:01+00:00,202.5764,2.43,14.24,47.84626,-54.09684
2021-04-09 16:59:01+00:00,201.3598,2.46,14.24,47.84626,-54.09684
2021-04-09 17:09:01+00:00,204.1215,2.44,14.24,47.84626,-54.09684
2021-04-09 17:19:01+00:00,205.3898,2.4,14.0,47.84626,-54.09684
2021-04-09 17:29:01+00:00,204.9231,2.3,14.0,47.84626,-54.09684
2021-04-09 17:39:01+00:00,208.7315,2.57,14.0,47.84626,-54.09684
2021-04-09 17:49:01+00:00,214.7764,2.67,14.0,47.84626,-54.09684
2021-04-09 17:59:01+00:00,219.8531,2.7,14.0,47.84626,-54.09684
2021-04-09 18:09:01+00:00,224.4498,2.86,14.0,47.84626,-54.09684
2021-04-09 18:19:01+00:00,231.0314,2.6,14.0,47.84626,-54.09684
2021-04-09 18:29:01+00:00,236.3947,2.68,14.0,47.84626,-54.09684
2021-04-09 18:39:01+00:00,238.3197,2.6,14.0,47.84626,-54.09684
2021-04-09 18:49:01+00:00,240.3131,2.5,14.0,47.84626,-54.09684
2021-04-09 18:59:01+00:00,245.1714,2.6,14.0,47.84626,-54.09684
2021-04-09 19:09:01+00:00,251.0147,2.47,14.0,47.84626,-54.09684
2021-04-09 19:19:01+00:00,254.2881,2.2,13.68,47.84626,-54.09684
2021-04-09 19:29:01+00:00,257.2998,2.16,13.68,47.84626,-54.09684
2021-04-09 19:39:01+00:00,263.5681,2.2,13.68,47.84626,-54.09684
2021-04-09 19:49:01+00:00,270.3098,2.67,13.68,47.84626,-54.09684
2021-04-09 19:59:01+00:00,274.3864,3.0,13.68,47.84626,-54.09684
2021-04-09 20:09:01+00:00,280.0931,2.29,13.68,47.84626,-54.09684
2021-04-09 20:19:01+00:00,287.1681,2.1,13.53,47.84626,-54.09684
2021-04-09 20:29:01+00:00,294.118,2.1,13.53,47.84626,-54.09684
2021-04-09 20:39:01+00:00,300.188,2.1,13.53,47.84626,-54.09684
2021-04-09 20:49:01+00:00,308.3813,2.1,13.53,47.84626,-54.09684
2021-04-09 20:59:01+00:00,312.5797,2.1,13.53,47.84626,-54.09684
2021-04-09 21:09:01+00:00,315.8929,2.1,13.53,47.84626,-54.09684
2021-04-09 21:19:01+00:00,322.6246,1.9,13.21,47.84626,-54.09684
2021-04-09 21:29:01+00:00,328.8013,1.8,13.21,47.84626,-54.09684
2021-04-09 21:39:01+00:00,332.1329,2.14,13.21,47.84626,-54.09684
2021-04-09 21:49:01+00:00,336.5713,2.2,13.21,47.84626,-54.09684
2021-04-09 21:59:01+00:00,340.5312,2.1,13.21,47.84626,-54.09684
2021-04-09 22:09:01+00:00,339.7480000000001,2.2,13.21,47.84626,-54.09684
2021-04-09 22:19:01+00:00,340.4297,2.1,12.81,47.84626,-54.09684
2021-04-09 22:29:01+00:00,344.4913,2.05,12.81,47.84626,-54.09684
2021-04-09 22:39:01+00:00,345.0497,2.21,12.81,47.84626,-54.09684
2021-04-09 22:49:01+00:00,341.7713,2.4,12.81,47.84626,-54.09684
2021-04-09 22:59:01+00:00,342.7164,2.42,12.81,47.84626,-54.09684
2021-04-09 23:09:01+00:00,344.923,2.4,12.81,47.84626,-54.09684
2021-04-09 23:19:01+00:00,341.2363,2.4,12.65,47.84626,-54.09684
2021-04-09 23:29:01+00:00,336.4446,2.44,12.65,47.84626,-54.09684
2021-04-09 23:39:01+00:00,336.7162,2.4,12.65,47.84626,-54.09684
2021-04-09 23:49:01+00:00,336.648,2.55,12.65,47.84626,-54.09684
2021-04-09 23:59:01+00:00,331.67800000000005,2.7,12.65,47.84626,-54.09684
